Location: ??????
(38.0131°N, 23.7723°E)
Time: 06:15:07
(UTC+00:00)

ARGOS - Pass Details

Date: 17 October 2021
Orbit: 820 x 835 km, 98.4° (Epoch: 28 November)

Event Time Altitude Azimuth Distance (km) Brightness Sun altitude
Rises 17:06:38 0° 172° (S) 3,346 6.2 -16.9°
Reaches altitude 10° 17:08:59 10° 174° (S) 2,419 5.5 -17.4°
Maximum altitude 17:14:20 70° 258° (WSW) 879 3.4 -18.4°
Drops below altitude 10° 17:19:44 10° 342° (NNW) 2,444 5.8 -19.5°
Sets 17:22:07 0° 345° (NNW) 3,384 6.6 -20.0°
